#timestamp,LO_Frequency,Hit,StdDev 
1710198015.4,286047000.7,N
1710198035.3,286047004.0,N
1710198055.1,286047005.5,N
1710198075.9,286047005.2,N
1710198095.7,286047005.6,N
1710198115.5,286047001.8,N
1710198135.4,286047000.5,N
1710198155.2,286046998.2,N
1710198175.0,286047000.9,N
1710198175.9,286047000.9,N
1710198195.8,286047005.5,N
1710198215.6,286047008.7,Y
1710198235.5,286046999.7,P
1710198255.3,286047006.8,P
1710198275.1,286047003.6,N
1710198295.9,286047002.8,N
1710198315.7,286046999.7,N
1710198335.5,286047002.4,N
1710198355.4,286047000.6,N
1710198375.2,286047003.2,N
1710198395.1,286047002.9,N
1710198396.0,286047002.9,N
1710198415.8,286047003.9,N
1710198435.6,286047003.8,N
1710198455.5,286047009.1,Y
1710198475.3,286047001.9,P
1710198495.1,286047005.8,P
1710198515.9,286047005.0,N
1710198535.7,286047005.6,Y
1710198555.6,286047002.8,P
1710198575.4,286047002.6,P
1710198595.2,286046995.3,P
1710198615.1,286047004.2,N
1710198616.0,286047004.2,N
1710198635.8,286047007.3,N
1710198655.7,286047004.0,N
1710198675.5,286047006.6,N
1710198695.3,286047006.2,N
1710198715.2,286047006.2,N
1710198735.9,286047005.2,N
1710198755.7,286047002.2,N
1710198775.6,286047002.4,N
1710198795.4,286047004.5,N
1710198815.3,286047009.1,Y
1710198835.1,286047002.9,P
1710198836.0,286047002.9,P
1710198855.8,286047003.1,P
1710198875.7,286047002.1,Y
1710198895.5,286046996.7,P
1710198915.3,286047004.4,N
1710198935.2,286047000.9,N
1710198955.0,286047001.1,N
1710198955.9,286047001.1,N
1710198975.8,286046999.3,N
1710198995.6,286047002.4,N
1710199015.4,286047000.0,N
1710199035.3,286047001.0,N
1710199055.1,286047001.0,N
1710199075.8,286046999.2,N
1710199095.7,286046998.5,N
1710199115.5,286046999.8,N
1710199135.4,286046998.4,N
1710199155.2,286047001.3,N
1710199175.0,286047000.1,N
1710199175.9,286047000.1,N
1710199195.8,286047000.5,N
1710199215.6,286047003.0,N
1710199235.4,286047004.1,N
1710199255.3,286047005.5,N
1710199275.1,286047004.7,N
1710199295.9,286047004.5,N
1710199315.7,286047007.5,Y
1710199335.5,286047001.4,P
1710199355.4,286047003.3,P
1710199375.2,286047004.4,P
1710199395.1,286047000.6,N
1710199396.0,286047000.6,N
1710199415.8,286047001.7,N
1710199435.6,286047003.0,N
1710199455.5,286047005.1,Y
1710199475.3,286047003.6,P
1710199495.1,286047007.4,P
1710199515.9,286047005.6,N
1710199535.7,286047003.6,N
1710199555.6,286047005.2,N
1710199575.4,286047002.9,N
1710199595.2,286047007.1,Y
1710199615.1,286047005.3,P
1710199616.0,286047005.3,P
1710199635.8,286047005.2,P
1710199655.6,286047005.2,Y
1710199675.5,286047000.6,P
1710199695.3,286046999.3,N
1710199715.2,286047000.9,N
1710199735.9,286047000.2,N
1710199755.7,286047000.6,N
1710199775.6,286047000.1,N
1710199795.4,286047002.2,N
1710199815.2,286046998.6,N
1710199835.1,286047000.7,N
1710199836.0,286047000.7,N
1710199855.8,286047002.5,N
1710199875.7,286047001.0,N
1710199895.5,286047002.1,N
1710199915.3,286047001.6,N
1710199935.2,286047001.9,N
1710199955.0,286047001.7,N
1710199955.9,286047001.7,N
1710199975.8,286047004.6,Y
1710199995.6,286047003.3,P
1710200015.4,286047000.8,N
1710200035.3,286047002.6,N
1710200055.1,286047001.4,N
1710200105.9,286047000.8,E
1710200115.8,286047000.5,N
1710200135.6,286046999.4,P
1710200155.5,286047000.7,N
1710200175.3,286046999.0,N
1710200195.1,286046996.8,Y
1710200215.9,286047003.4,P
1710200235.7,286047007.1,P
1710200255.6,286047007.2,N
1710200275.4,286047007.4,N
1710200295.2,286047005.9,N
1710200315.1,286047004.7,N
1710200316.0,286047004.7,N
1710200335.8,286047003.2,N
1710200355.6,286047001.6,N
1710200375.5,286047006.0,N
1710200395.3,286047005.2,N
1710200415.2,286047002.5,N
1710200435.9,286047003.0,N
1710200455.7,286047004.7,N
1710200475.6,286047003.8,N
1710200495.4,286047002.0,N
1710200515.2,286047004.4,N
1710200535.1,286047005.3,N
1710200536.0,286047005.3,N
1710200555.8,286047004.5,N
1710200575.7,286047010.3,Y
1710200595.5,286047000.6,P
1710200615.4,286047000.5,N
1710200635.2,286046996.5,N
1710200655.0,286046997.8,N
1710200655.9,286046997.8,N
1710200675.8,286047001.8,N
1710200695.6,286047002.9,N
1710200715.4,286047005.0,N
1710200735.3,286047008.6,Y
1710200755.1,286047003.6,P
1710200775.9,286047002.5,N
1710200795.7,286047007.5,P
1710200815.5,286047004.9,N
1710200835.4,286047006.2,N
1710200855.2,286047008.6,Y
1710200875.0,286047001.4,P
1710200875.9,286047001.4,N
1710200895.8,286047004.7,P
1710200915.6,286047001.5,N
1710200935.5,286047001.9,N
1710200955.3,286046998.9,N
1710200975.1,286046997.2,N
1710200995.9,286046997.5,N
1710201015.7,286046998.5,N
1710201035.5,286047006.8,N
1710201055.4,286047006.4,N
1710201075.2,286047006.1,N
1710201095.1,286047009.8,Y
1710201096.0,286047009.8,P
1710201115.8,286047011.9,P
1710201135.6,286047004.1,N
1710201155.5,286047001.5,N
1710201175.3,286046999.7,N
1710201195.1,286047004.3,N
1710201215.9,286047006.2,N
1710201235.7,286047006.1,N
1710201255.6,286047010.7,N
1710201305.4,286047009.6,E
1710201315.4,286047006.7,N
1710201335.2,286047002.1,P
1710201355.0,286046999.9,N
1710201355.9,286046999.9,N
1710201375.8,286047004.9,N
1710201395.6,286047012.1,Y
1710201415.5,286047011.2,P
1710201435.3,286047012.5,N
1710201455.1,286047017.1,P
1710201475.9,286047020.3,Y
1710201495.7,286047008.2,P
1710201515.5,286047008.2,P
1710201535.4,286047011.5,P
1710201555.2,286047013.9,Y
1710201575.1,286047008.4,P
1710201576.0,286047008.4,P
1710201595.8,286047009.9,P
